sat.trackr.live / text

‹ back to catalog

KUIPER-00049

NORAD 64509 · 2025-134K

PAYLOAD ACTIVE UNKNOWN

§ Identity

Operator
Country
US
Launch date
2025-06-23
Launch site
AFETR
Launch vehicle
Mass (kg)
RCS (m²)

External: N2YO · Heavens-Above · Gunter

§ Orbital elements

Epoch: 2026-09-21T21:52:00.712704Z

Period
97.30 min
Inclination
51.9006°
Eccentricity
0.0000644
Mean motion
14.79931137 rev/d
Perigee alt
629.1 km
Apogee alt
630.0 km
Semi-major
7,007.7 km
B*
1.7146e-5
RAAN
80.3429°
Arg perigee
102.9728°
Mean anomaly
257.1306°
Rev number
6,920

§ Raw data

KUIPER-000491 64509U 25134K   26264.91111936 -.00000090  00000+0  17146-4 0  99922 64509  51.9006  80.3429 0000644 102.9728 257.1306 14.79931137 69202

JSON: /api/v1/satellites/64509 · /tle

For live sub-satellite position, see the globe view (requires WebGL).

§ Visibility from observer

Set your observer location to see the next 7 days of passes ≥ 10°. The values pass through the URL so the page stays shareable.

No JS? Fill the form by hand. The geolocation button needs JavaScript.